Hourly Data Report for October 30, 2014

All times are specified in Local Standard Time (LST). Add 1 hour to adjust for Daylight Saving Time where and when it is observed.

CLYDE RIVER A
NUNAVUT

70°29'09.000" N
68°31'01.000" W
26.50 m
2400804
71090
YCY

Download Data

Hourly Data (October 2014)
Hourly Data Report for October 30, 2014
Temp Definition
°C
Dew Point Temp Definition
°C
Rel Hum Definition
%
Wind Dir Definition
10's deg

Wind Spd Definition
km/h
Visibility Definition
km
Stn Press Definition
kPa
Hmdx Definition


Wind Chill Definition


Weather Definition


TIME
00:00 Legend Double Dagger -7.6 -10.0 83 28 5 16.1 100.46   -10 LegendNANA
01:00 Legend Double Dagger -6.5 -9.6 79 29 18 16.1 100.50   -13 LegendNANA
02:00 Legend Double Dagger -6.1 -9.5 77 27 8 16.1 100.55   -10 LegendNANA
03:00 Legend Double Dagger -6.2 -9.1 80 27 9 16.1 100.61   -10 LegendNANA
04:00 Legend Double Dagger -5.6 -8.9 78 LegendMM 4 16.1 100.65   -7 LegendNANA
05:00 Legend Double Dagger -6.1 -8.9 81   0 16.1 100.70     LegendNANA
06:00 Legend Double Dagger -6.4 -8.9 83 28 5 16.1 100.76   -9 LegendNANA
07:00 Legend Double Dagger -6.5 -8.6 85 30 13 16.1 100.83   -12 LegendNANA
08:00 Legend Double Dagger -6.9 -8.6 88 31 13 16.1 100.89   -12 LegendNANA
09:00 Legend Double Dagger -6.2 -8.3 85 32 11 16.1 100.93   -11 LegendNANA
10:00 Legend Double Dagger -7.1 -8.6 89 31 11 16.1 100.96   -12 LegendNANA
11:00 Legend Double Dagger -8.7 -10.4 87 30 21 16.1 100.99   -16 LegendNANA
12:00 Legend Double Dagger -8.4 -10.1 88 31 18 16.1 101.05   -15 LegendNANA
13:00 Legend Double Dagger -7.5 -9.2 88 30 18 9.7 101.10   -14 Fog
14:00 Legend Double Dagger -7.7 -9.4 88 29 22 16.1 101.14   -15 LegendNANA
15:00 Legend Double Dagger -8.0 -9.2 91 29 26 16.1 101.19   -16 LegendNANA
16:00 Legend Double Dagger -8.3 -9.1 94 30 24 12.9 101.21   -16 LegendNANA
17:00 Legend Double Dagger -8.2 -9.3 92 30 22 16.1 101.23   -16 LegendNANA
18:00 Legend Double Dagger -7.9 -8.6 95 30 24 11.3 101.25   -16 LegendNANA
19:00 Legend Double Dagger -7.2 -8.0 94 30 26 6.4 101.27   -15 Fog
20:00 Legend Double Dagger -7.3 -8.4 92 30 26 16.1 101.28   -15 Snow
21:00 Legend Double Dagger -7.1 -8.6 89 30 21 16.1 101.29   -14 LegendNANA
22:00 Legend Double Dagger -7.8 -9.5 88 30 18 16.1 101.30   -15 LegendNANA
23:00 Legend Double Dagger -7.6 -9.3 88 30 22 16.1 101.28   -15 Snow

Notes on Data Quality.

Legend

  • E = Estimated
  • M = Missing
  • NA = Not Available
  • ‡ = Partner data that is not subject to review by the National Climate Archives
Date modified: